File timestamp: Tue Aug 16 02:00:00 2016, Internal temp: 19.9127197265625
1471312801, 0.188639730215073, 0.0176487304270267, -0.00578139862045646, 33814, 32873, 23201, 145.289352416992
1471312802, 0.180659458041191, 0.0174540672451258, -0.00589305814355612, 33819, 32874, 23198, NaN
1471312803, 0.172291502356529, 0.0180058386176825, -0.00586303928866982, 33838, 32858, 23198, NaN
1471312803, 0.163546562194824, 0.0173187348991632, -0.00640367856249213, 33813, 32865, 23214, NaN
1471312804.002, 0.154458433389664, 0.0174966063350439, -0.00682982755824924, 33814, 32849, 23213, NaN
1471312805.002, 0.145078584551811, 0.0167513191699982, -0.00707040866836905, 33816, 32864, 23196, NaN
1471312806.002, 0.135471358895302, 0.0157541576772928, -0.00621297629550099, 33808, 32870, 23199, NaN
1471312807.002, 0.125709712505341, 0.0159797109663486, -0.00632866099476814, 33808, 32856, 23206, NaN
1471312808.002, 0.115871705114841, 0.0148828458040953, -0.00578427454456687, 33822, 32867, 23203, NaN
1471312809.002, 0.106037274003029, 0.0146126355975866, -0.00545033439993858, 33819, 32870, 23201, NaN
1471312810.002, 0.0962857306003571, 0.0149135226383805, -0.00545951817184687, 33823, 32870, 23207, NaN
1471312811.012, 0.0866935774683952, 0.0161279868334532, -0.00541402585804462, 33809, 32859, 23205, NaN
1471312811.012, 0.0773328170180321, 0.0166306216269732, -0.0052567683160305, 33819, 32868, 23198, NaN
1471312812.02, 0.0682695657014847, 0.0159640163183212, -0.00521458778530359, 33823, 32858, 23195, NaN
1471312813.02, 0.0595630630850792, 0.01622623950243, -0.00494438735768199, 33826, 32865, 23210, NaN
1471312814.02, 0.0512650012969971, 0.0165056735277176, -0.00498803472146392, 33815, 32874, 23206, NaN
1471312815.02, 0.0434190630912781, 0.0170356575399637, -0.00555621925741434, 33821, 32870, 23188, NaN
1471312816.02, 0.036060743033886, 0.0170165989547968, -0.00546069350093603, 33820, 32875, 23205, NaN
1471312817.02, 0.0292173530906439, 0.0173454359173775, -0.00499765761196613, 33820, 32864, 23213, NaN
1471312818.02, 0.0229081977158785, 0.016861105337739, -0.00406317599117756, 33818, 32864, 23206, NaN
1471312819.02, 0.0171449035406113, 0.0167807303369045, -0.00422403588891029, 33819, 32866, 23206, NaN
1471312820.02, 0.0119318533688784, 0.0164793226867914, -0.00295761856250465, 33809, 32865, 23211, NaN
1471312821.02, 0.00726671284064651, 0.017160477116704, -0.00413293763995171, 33825, 32870, 23203, NaN
1471312822.02, 0.00314102903939784, 0.0176263824105263, -0.00445679202675819, 33824, 32853, 23188, NaN
1471312823.02, -0.000459124363260344, 0.0181698463857174, -0.00402933917939663, 33816, 32866, 23206, NaN
1471312824.02, -0.00355247594416142, 0.0172088500112295, -0.00444862898439169, 33823, 32879, 23200, NaN
1471312825.02, -0.00618073344230652, 0.0173145141452551, -0.00469787651672959, 33813, 32875, 23204, NaN
1471312826.02, -0.00960738491266966, 0.0163272749632597, -0.00497663719579577, 33815, 32859, 23202, NaN
1471312827.02, -0.0152855692431331, 0.0155555317178369, -0.00461718253791332, 33818, 32866, 23200, NaN
1471312828.02, -0.0212821736931801, 0.0155001115053892, -0.00489704823121428, 33816, 32861, 23197, NaN
1471312829.02, -0.0271196030080318, 0.0163700543344021, -0.00491372589021921, 33813, 32864, 23203, NaN
1471312830.02, -0.0313906036317348, 0.0161512363702059, -0.0051299249753356, 33824, 32868, 23190, NaN
1471312831.02, -0.0343252122402191, 0.016189843416214, -0.00550994044169784, 33819, 32855, 23194, NaN
1471312832.02, -0.0363338179886341, 0.016533775255084, -0.00519095733761787, 33808, 32863, 23197, NaN
1471312833.02, -0.0373435318470001, 0.01555469725281, -0.00573216890916228, 33801, 32872, 23210, NaN
1471312834.02, -0.0385941043496132, 0.0155957154929638, -0.00568523956462741, 33833, 32859, 23185, NaN
1471312835.02, -0.039061401039362, 0.0161975659430027, -0.0065979384817183, 33833, 32873, 23196, NaN
1471312836.02, -0.0387002229690552, 0.0160295609384775, -0.00677150301635265, 33833, 32854, 23200, NaN
1471312837.02, -0.0378748215734959, 0.0159661546349525, -0.00725147034972906, 33817, 32864, 23206, NaN
1471312838.02, -0.03554717451334, 0.0165860932320356, -0.00815285835415125, 33811, 32851, 23202, NaN
1471312839.028, -0.0325109362602234, 0.0160519052296877, -0.00930121727287769, 33821, 32872, 23188, NaN
1471312840.028, -0.0281896814703941, 0.0153738101944327, -0.00911695789545774, 33830, 32870, 23212, NaN
1471312840.028, -0.0228846371173859, 0.0159154944121838, -0.00986280106008053, 33813, 32879, 23202, NaN
1471312841.036, -0.0164451859891415, 0.0156064890325069, -0.0108026079833508, 33822, 32856, 23197, NaN
1471312842.036, -0.00992387346923351, 0.0157835278660059, -0.0107411546632648, 33825, 32853, 23198, NaN
1471312843.036, -0.00347465975210071, 0.0161632392555475, -0.0100206267088652, 33807, 32854, 23205, NaN
1471312844.036, 0.00332930614240468, 0.0166496150195599, -0.010413913987577, 33828, 32876, 23199, NaN
1471312844.036, 0.0104674268513918, 0.0171971600502729, -0.00991555023938417, 33819, 32851, 23195, NaN
1471312845.042, 0.0174349062144756, 0.0170129109174013, -0.00963434111326933, 33813, 32866, 23205, NaN
1471312846.042, 0.0240329820662737, 0.017958153039217, -0.00903768558055162, 33817, 32862, 23199, NaN
1471312847.042, 0.0303643867373466, 0.0178833715617657, -0.00958612840622663, 33813, 32870, 23207, NaN
1471312848.042, 0.0363627709448338, 0.0176264066249132, -0.00940797198563814, 33802, 32875, 23205, NaN
1471312848.042, 0.0408597961068153, 0.0176205709576607, -0.00900222081691027, 33821, 32865, 23193, NaN
1471312849.048, 0.0443515107035637, 0.0169361401349306, -0.0097692683339119, 33818, 32873, 23192, NaN
1471312850.048, 0.0468638762831688, 0.0177626255899668, -0.0104888053610921, 33816, 32856, 23206, NaN
1471312851.048, 0.048961590975523, 0.0172702521085739, -0.0111511712893844, 33839, 32864, 23206, NaN
1471312852.048, 0.0494307912886143, 0.0178746469318867, -0.0109900301322341, 33817, 32869, 23198, NaN
1471312852.048, 0.0486019402742386, 0.0192769560962915, -0.0104611134156585, 33806, 32864, 23209, NaN
1471312853.052, 0.0469171218574047, 0.0191822797060013, -0.0106954155489802, 33831, 32865, 23197, NaN
1471312854.052, 0.0455045364797115, 0.0192727353423834, -0.0105341216549277, 33818, 32865, 23208, NaN
1471312855.052, 0.0429572947323322, 0.0192258600145578, -0.0102390600368381, 33826, 32870, 23213, 145.323516845703
1471312856.052, 0.0385959334671497, 0.0189752150326967, -0.0103210955858231, 33815, 32869, 23204, NaN
1471312856.052, 0.0342064723372459, 0.0183928068727255, -0.0102071557193995, 33819, 32861, 23201, NaN
1471312857.054, 0.0294289626181126, 0.0183628592640162, -0.0109021374955773, 33814, 32887, 23194, NaN
1471312858.054, 0.02450549043715, 0.017969498410821, -0.0109355673193932, 33813, 32866, 23208, NaN
1471312859.054, 0.0194166079163551, 0.0175381693989038, -0.0106053547933698, 33828, 32858, 23188, NaN
1471312860.054, 0.0147864008322358, 0.0176888722926378, -0.0107637979090214, 33813, 32866, 23196, NaN
1471312861.054, 0.0102319996803999, 0.0175447668880224, -0.0111391581594944, 33832, 32870, 23199, NaN
1471312862.054, 0.00539863342419267, 0.017817460000515, -0.0107189919799566, 33817, 32864, 23193, NaN
1471312863.064, 0.00160430150572211, 0.0191639345139265, -0.0103664072230458, 33809, 32861, 23206, NaN
1471312864.064, -0.00244063278660178, 0.0196038037538528, -0.010879747569561, 33829, 32869, 23191, NaN
1471312865.064, -0.00633617909625173, 0.0192727334797382, -0.0108609795570374, 33813, 32867, 23206, NaN
1471312866.064, -0.00901529379189014, 0.018978476524353, -0.0105663063004613, 33817, 32870, 23209, NaN
1471312867.064, -0.0126982172951102, 0.0186660103499889, -0.0109291067346931, 33807, 32875, 23208, NaN
1471312868.064, -0.0159229300916195, 0.0188522543758154, -0.011019004508853, 33797, 32873, 23215, NaN
1471312869.064, -0.0192567836493254, 0.0187000352889299, -0.0106046525761485, 33815, 32862, 23207, NaN
1471312870.064, -0.0230524558573961, 0.0181587189435959, -0.0100963870063424, 33810, 32861, 23201, NaN
1471312871.064, -0.0258869677782059, 0.0184046402573586, -0.00934342574328184, 33804, 32862, 23200, NaN
1471312872.064, -0.0279243923723698, 0.0175838954746723, -0.00851015094667673, 33825, 32865, 23199, NaN
1471312873.064, -0.0303027369081974, 0.0175381731241941, -0.00836388673633337, 33834, 32863, 23202, NaN
1471312874.064, -0.0318523906171322, 0.017057990655303, -0.00888046156615019, 33798, 32873, 23206, NaN
1471312875.064, -0.0323606543242931, 0.017385745421052, -0.00881791394203901, 33817, 32870, 23204, NaN
1471312876.064, -0.0324529558420181, 0.0171559900045395, -0.00907525885850191, 33825, 32866, 23196, NaN
1471312877.064, -0.0326933264732361, 0.018034690991044, -0.0095857223495841, 33812, 32879, 23195, NaN
1471312878.064, -0.0313906110823154, 0.0175951849669218, -0.0101721687242389, 33820, 32871, 23182, NaN
1471312879.064, -0.0294842030853033, 0.0175982192158699, -0.00977104250341654, 33810, 32866, 23211, NaN
1471312880.064, -0.0275259912014008, 0.0173117388039827, -0.00948613788932562, 33816, 32867, 23192, NaN
1471312881.064, -0.0252207331359386, 0.0171792656183243, -0.00970607809722424, 33810, 32870, 23199, NaN
1471312882.064, -0.0230704285204411, 0.0170746594667435, -0.00954914838075638, 33804, 32873, 23213, NaN
1471312883.064, -0.0206421390175819, 0.0167512502521276, -0.00915216933935881, 33818, 32864, 23202, NaN
1471312884.064, -0.0171439126133919, 0.016943171620369, -0.0089119728654623, 33820, 32873, 23206, NaN
1471312885.064, -0.0122505659237504, 0.017541179433465, -0.00930662080645561, 33815, 32863, 23210, NaN
1471312886.064, -0.00714929075911641, 0.0170415248721838, -0.00873677153140306, 33803, 32859, 23210, NaN
1471312887.064, -0.00205580866895616, 0.017096146941185, -0.00817184522747993, 33819, 32850, 23207, NaN
1471312888.064, 0.00135591812431812, 0.0166910421103239, -0.00825600791722536, 33811, 32873, 23204, NaN
1471312889.064, 0.00367125263437629, 0.016682643443346, -0.00815593637526035, 33820, 32867, 23197, NaN
1471312890.064, 0.00589378783479333, 0.0167853776365519, -0.00729013280943036, 33812, 32868, 23199, NaN
1471312891.064, 0.00745028769597411, 0.0168680902570486, -0.00708177220076323, 33815, 32868, 23204, NaN
1471312892.064, 0.00824133679270744, 0.0172876492142677, -0.00671743787825108, 33817, 32870, 23202, NaN
1471312893.074, 0.00897860061377287, 0.0177583172917366, -0.00572715001180768, 33818, 32874, 23193, NaN
1471312894.074, 0.0102829914540052, 0.0169428400695324, -0.00538580818101764, 33820, 32869, 23196, NaN
1471312894.074, 0.0112913586199284, 0.0163392648100853, -0.00554806180298328, 33817, 32861, 23217, NaN
1471312895.082, 0.0110530788078904, 0.0150686874985695, -0.00618081213906407, 33811, 32873, 23201, NaN
1471312896.082, 0.0104066776111722, 0.0143808638677001, -0.00611319905146956, 33830, 32877, 23202, NaN
1471312897.082, 0.00896386802196503, 0.0140720242634416, -0.00622278638184071, 33814, 32871, 23218, NaN
1471312898.082, 0.00701524456962943, 0.0130621185526252, -0.00629678787663579, 33824, 32867, 23201, NaN
1471312898.082, 0.00555177591741085, 0.0132700363174081, -0.00563811091706157, 33813, 32863, 23205, NaN
1471312899.088, 0.00341596058569849, 0.0139529835432768, -0.00527484761551023, 33825, 32860, 23200, NaN
1471312900.088, 0.00206804415211082, 0.0137750832363963, -0.00430115591734648, 33813, 32872, 23195, NaN
1471312901.088, 0.00141268491279334, 0.0130755100399256, -0.00440903101116419, 33810, 32869, 23204, NaN
1471312902.088, 0.000910087081138045, 0.0129017680883408, -0.00442895758897066, 33814, 32870, 23202, NaN
1471312902.088, 7.45223405829165e-06, 0.0131696779280901, -0.00482522090896964, 33816, 32856, 23210, NaN
1471312903.092, -0.000541927525773644, 0.0137197598814964, -0.00421927263960242, 33815, 32848, 23196, NaN
1471312904.092, -0.00093512365128845, 0.0136113585904241, -0.00454494263976812, 33812, 32872, 23207, NaN
1471312905.092, -0.000344671803759411, 0.0137328365817666, -0.00387297617271543, 33814, 32871, 23207, NaN
1471312906.092, 0.000605053384788334, 0.0144783146679401, -0.00314777065068483, 33824, 32862, 23198, NaN
1471312906.092, 0.00192264723591506, 0.0146182086318731, -0.00213192636147141, 33817, 32867, 23205, NaN
1471312907.096, 0.00310304271988571, 0.0152688343077898, -0.00219790195114911, 33802, 32875, 23199, NaN
1471312908.096, 0.00389524921774864, 0.0155736766755581, -0.00140374060720205, 33813, 32876, 23201, NaN
1471312909.096, 0.0037476324941963, 0.0154037373140454, -0.000660868478007615, 33820, 32855, 23215, NaN
1471312910.096, 0.00275551993399858, 0.0148645378649235, -0.000143536395626143, 33824, 32866, 23202, 144.726821899414
1471312911.096, 0.00307729933410883, 0.0150962043553591, 0.000390029395930469, 33812, 32875, 23209, NaN
1471312912.096, 0.00424277177080512, 0.0150084421038628, 0.00147596630267799, 33821, 32866, 23193, NaN
1471312913.096, 0.00476739322766662, 0.0145089626312256, 0.00241711642593145, 33811, 32861, 23191, NaN
1471312914.096, 0.00493103172630072, 0.0147514007985592, 0.00274749030359089, 33823, 32867, 23191, NaN
1471312915.096, 0.00664346339181066, 0.0147878732532263, 0.00290585099719465, 33813, 32874, 23195, NaN
1471312916.096, 0.0123187899589539, 0.0155310938134789, 0.00226860633119941, 33813, 32868, 23212, NaN
1471312917.096, 0.0226891338825226, 0.0155278714373708, 0.00209714798256755, 33821, 32861, 23202, NaN
1471312918.104, 0.0383489727973938, 0.0154127795249224, 0.00235231430269778, 33822, 32865, 23207, NaN
1471312919.104, 0.0591828525066376, 0.0149707198143005, 0.00223304866813123, 33814, 32870, 23201, NaN
1471312920.104, 0.0831732824444771, 0.0147112663835287, 0.00160957814659923, 33825, 32865, 23195, NaN
1471312920.104, 0.10920325666666, 0.0141997011378407, 0.0024326266720891, 33820, 32872, 23203, NaN
1471312921.112, 0.0906896516680717, 0.013206266798079, 0.00149355968460441, 33807, 32870, 23196, NaN
1471312922.112, 0.057592436671257, 0.0140183577314019, 0.00069477764191106, 33813, 32863, 23202, NaN
1471312923.112, 0.0294448658823967, 0.0136609254404902, 0.000322485633660108, 33827, 32864, 23184, NaN
1471312924.112, 0.00585584435611963, 0.0142163326963782, 0.000736418762244284, 33829, 32873, 23205, NaN
1471312925.112, -0.0135606825351715, 0.0140704177320004, 0.0008189189247787, 33820, 32866, 23198, NaN
1471312926.112, -0.0291837099939585, 0.0144537566229701, 0.000998024945147336, 33817, 32887, 23211, NaN
1471312927.112, -0.0413831509649754, 0.01438566762954, 0.001520985388197, 33821, 32873, 23214, NaN
1471312928.112, -0.050517849624157, 0.0140879582613707, 0.00139019032940269, 33823, 32867, 23200, NaN
1471312929.112, -0.0569337047636509, 0.0138491606339812, 0.00221957475878298, 33799, 32863, 23214, NaN
1471312930.112, -0.060961976647377, 0.0136220315471292, 0.00234481343068182, 33817, 32860, 23201, NaN
1471312931.112, -0.0629177391529083, 0.0139267574995756, 0.00210674456320703, 33811, 32873, 23213, NaN
1471312932.112, -0.0630986467003822, 0.0141723426058888, 0.00206707464531064, 33834, 32865, 23201, NaN
1471312933.112, -0.0617837980389595, 0.0154197961091995, 0.00315807829611003, 33826, 32863, 23194, NaN
1471312934.112, -0.0592329986393452, 0.0161835942417383, 0.00345782446675003, 33819, 32867, 23209, NaN
1471312935.112, -0.0556861646473408, 0.0167523883283138, 0.00319627928547561, 33808, 32863, 23199, NaN
1471312936.112, -0.0513630099594593, 0.01710494607687, 0.00432648742571473, 33810, 32871, 23208, NaN
1471312937.112, -0.0464629530906677, 0.0177051890641451, 0.00441357586532831, 33817, 32864, 23194, NaN
1471312938.112, -0.0411652661859989, 0.0185529533773661, 0.00448020501062274, 33819, 32863, 23203, NaN
1471312939.112, -0.0356293879449368, 0.0186012629419565, 0.00382382702082396, 33800, 32872, 23202, NaN
1471312940.112, -0.029995447024703, 0.0191029738634825, 0.00368286902084947, 33813, 32859, 23199, NaN
1471312941.112, -0.0243849419057369, 0.0190386213362217, 0.00385831692256033, 33809, 32869, 23196, NaN
1471312942.112, -0.0189015567302704, 0.0190701577812433, 0.00354848918505013, 33824, 32881, 23190, NaN
1471312943.112, -0.0136320926249027, 0.0187814477831125, 0.00192061078269035, 33832, 32869, 23204, NaN
1471312944.112, -0.00864750612527132, 0.0187988728284836, 0.0012384905712679, 33823, 32881, 23208, NaN
1471312945.112, -0.00400401279330254, 0.0187496598809958, 0.0013968626735732, 33809, 32865, 23194, NaN
1471312946.122, 0.000255754712270573, 0.0193293616175652, 0.00101878272835165, 33820, 32853, 23200, NaN
1471312947.122, 0.00410154880955815, 0.0185564067214727, 0.000757425324991345, 33819, 32855, 23204, NaN
1471312948.122, 0.00751429703086615, 0.0184382256120443, 0.000196938373846933, 33831, 32862, 23195, NaN
1471312948.122, 0.010484891012311, 0.0179048907011747, -0.000291153381112963, 33824, 32868, 23199, NaN
1471312949.13, 0.0130129931494594, 0.0177480839192867, 0.000304626766592264, 33813, 32852, 23202, NaN
1471312950.13, 0.0151058696210384, 0.0186411812901497, 0.000636742333881557, 33799, 32872, 23209, NaN
1471312951.13, 0.0167772676795721, 0.0189019199460745, 0.000733622349798679, 33817, 32857, 23198, NaN
1471312952.13, 0.017858624458313, 0.0189172644168139, 0.000701583630871028, 33811, 32859, 23211, NaN
1471312952.13, 0.0153530426323414, 0.0199475921690464, -0.000728861370589584, 33825, 32872, 23196, NaN
1471312953.136, 0.0102218221873045, 0.0198385007679462, -0.00135303614661098, 33821, 32862, 23199, NaN
1471312954.136, 0.00449110381305218, 0.0196304004639387, -0.000838560576085001, 33814, 32880, 23194, NaN
1471312955.136, -0.00180495588574558, 0.0191334467381239, -0.000571711978409439, 33825, 32873, 23197, NaN
1471312956.136, -0.00796599499881268, 0.0188427325338125, -0.00085304694948718, 33820, 32858, 23207, NaN
1471312956.136, -0.0130194881930947, 0.0189294759184122, -0.000963025260716677, 33817, 32855, 23208, NaN
1471312957.14, -0.0176198594272137, 0.0188875589519739, -0.00116999761667103, 33820, 32869, 23201, NaN
1471312958.14, -0.0217177476733923, 0.0178745724260807, -0.000711467990186065, 33818, 32866, 23189, NaN
1471312959.14, -0.0233007948845625, 0.0168834123760462, -0.000515801424626261, 33831, 32861, 23191, NaN
1471312960.14, -0.0219960026443005, 0.0164154060184956, -0.000338878278853372, 33812, 32876, 23206, NaN
1471312961.14, -0.0200975965708494, 0.0166271794587374, -0.000100378369097598, 33800, 32862, 23201, NaN
1471312962.14, -0.0185024309903383, 0.0164833422750235, -0.000527030031662434, 33813, 32863, 23202, NaN
1471312963.14, -0.0154652232304215, 0.0164739284664392, -0.000923569779843092, 33808, 32858, 23203, NaN
1471312964.14, -0.0106349410489202, 0.0163018181920052, -0.00234161876142025, 33826, 32873, 23201, NaN
1471312965.14, -0.00466281920671463, 0.0161369796842337, -0.00229015969671309, 33810, 32870, 23206, NaN
1471312966.14, 0.00175843259785324, 0.0166183803230524, -0.00232935952953994, 33816, 32866, 23210, 144.542404174805
1471312967.14, 0.00923455506563187, 0.0164441596716642, -0.00213814596645534, 33800, 32861, 23214, NaN
1471312968.14, 0.0165027976036072, 0.0160776395350695, -0.00288759218528867, 33808, 32856, 23211, NaN
1471312969.14, 0.0227059479802847, 0.0153203597292304, -0.0023958298843354, 33808, 32868, 23215, NaN
1471312970.14, 0.0279920659959316, 0.0147289671003819, -0.002359809121117, 33810, 32859, 23201, NaN
1471312971.14, 0.0332291424274445, 0.0155396014451981, -0.00198563374578953, 33809, 32864, 23216, NaN
1471312972.148, 0.0380278155207634, 0.014464259147644, -0.0021097466815263, 33835, 32881, 23191, NaN
1471312973.148, 0.0429785959422588, 0.0150098679587245, -0.00233640125952661, 33812, 32869, 23203, NaN
1471312974.148, 0.047013197094202, 0.0154567332938313, -0.00202928832732141, 33818, 32871, 23200, NaN
1471312975.148, 0.049123503267765, 0.0160556212067604, -0.00193181494250894, 33829, 32869, 23214, NaN
1471312975.148, 0.0499266274273396, 0.0160977467894554, -0.00163181859534234, 33813, 32868, 23217, NaN
1471312976.156, 0.049940325319767, 0.0167067386209965, -0.00120908685494214, 33812, 32866, 23204, NaN
1471312977.156, 0.0487968064844608, 0.0155866714194417, -0.00127373950090259, 33810, 32866, 23207, NaN
1471312978.156, 0.0471643097698689, 0.0169883985072374, -0.00125910644419491, 33808, 32867, 23214, NaN
1471312979.156, 0.0449187345802784, 0.0167888384312391, -0.000672558497171849, 33820, 32871, 23201, NaN
1471312979.156, 0.0425356291234493, 0.0163248255848885, 0.000187334793736227, 33817, 32874, 23205, NaN
1471312980.162, 0.0408235266804695, 0.0163008887320757, -0.000336540309945121, 33821, 32869, 23202, NaN
1471312981.162, 0.0379895754158497, 0.0161381214857101, -0.000224310351768509, 33836, 32857, 23197, NaN
1471312982.162, 0.0339287631213665, 0.0167105793952942, -0.000697136274538934, 33816, 32850, 23201, NaN
1471312983.162, 0.0284861903637648, 0.0166393350809813, -0.000567957875318825, 33813, 32881, 23204, NaN
1471312984.162, 0.022855868563056, 0.017589034512639, -0.000567591632716358, 33825, 32856, 23195, NaN
1471312985.162, 0.0171033870428801, 0.0180467553436756, -0.000533266516868025, 33806, 32858, 23205, NaN
1471312986.162, 0.0103164641186595, 0.0174569711089134, -0.000879895116668195, 33803, 32854, 23201, NaN
1471312987.162, 0.00317291799001396, 0.0175325963646173, -0.000668510154355317, 33823, 32858, 23198, NaN
1471312988.162, -0.00315239885821939, 0.0186498090624809, -0.000566568458452821, 33813, 32865, 23204, NaN
1471312989.162, -0.00816928781569004, 0.0182892177253962, -0.000347628723829985, 33825, 32864, 23192, NaN
1471312990.162, -0.01231172028929, 0.0183704718947411, -0.000502572685945779, 33813, 32866, 23202, NaN
1471312991.162, -0.0161537881940603, 0.0193283054977655, 0.000215626816498116, 33808, 32874, 23199, NaN
1471312992.162, -0.0198532678186893, 0.019945191219449, -9.14368938538246e-05, 33827, 32863, 23201, NaN
1471312993.162, -0.0219434276223183, 0.0199964977800846, -0.000780437956564128, 33809, 32874, 23206, NaN
1471312994.162, -0.0231126751750708, 0.0202689804136753, 0.00010282334551448, 33819, 32852, 23198, NaN
1471312995.162, -0.0248580705374479, 0.0204495955258608, -0.00050885189557448, 33821, 32886, 23206, NaN
1471312996.162, -0.0266344510018826, 0.0199932120740414, -0.000427541264798492, 33833, 32869, 23206, NaN
1471312997.162, -0.0255146529525518, 0.0198972187936306, -0.00109898624941707, 33828, 32864, 23192, NaN
1471312998.162, -0.0173712950199842, 0.0193315222859383, -0.000247639574809, 33819, 32879, 23199, NaN
1471312999.162, -0.000170009036082774, 0.019408019259572, -0.000137186667416245, 33823, 32869, 23192, NaN
1471313000.17, 0.0273684971034527, 0.0187127757817507, -0.000281038956018165, 33824, 32855, 23197, NaN
1471313001.17, 0.0640425160527229, 0.0184051264077425, -0.000407055020332336, 33811, 32854, 23209, NaN
1471313002.17, 0.107115410268307, 0.0182991567999125, -0.00113102211616933, 33824, 32866, 23198, NaN
1471313002.17, 0.0916542187333107, 0.0185887161642313, -0.00169050775002688, 33815, 32869, 23214, NaN
1471313003.178, 0.0541133470833302, 0.0198092050850391, -0.0018919511931017, 33819, 32867, 23200, NaN
1471313004.178, 0.0225028116255999, 0.0197642687708139, -0.0016445325454697, 33810, 32877, 23210, NaN
1471313005.178, -0.00368073116987944, 0.019994804635644, -0.00126875750720501, 33824, 32867, 23183, NaN
1471313006.178, -0.0249295495450497, 0.0202356316149235, -0.00172470859251916, 33796, 32857, 23207, NaN
1471313006.178, -0.0417226366698742, 0.0203622579574585, -0.00197663158178329, 33828, 32877, 23203, NaN
1471313007.184, -0.0545235201716423, 0.0203139539808035, -0.000838960520923138, 33829, 32872, 23216, NaN
1471313008.184, -0.0637781620025635, 0.0202674195170403, -0.00130544533021748, 33795, 32860, 23210, NaN
1471313009.184, -0.0699130296707153, 0.019920390099287, -0.00204037735238671, 33819, 32859, 23198, NaN
1471313010.184, -0.0733333453536034, 0.0195288062095642, -0.00248160003684461, 33813, 32866, 23194, NaN
1471313011.184, -0.0744216367602348, 0.019861776381731, -0.0019711977802217, 33799, 32878, 23199, NaN
1471313012.184, -0.0735365077853203, 0.0197960510849953, -0.00165774032939225, 33818, 32855, 23189, NaN